This is the latest recevied weather packets stored in our database for station/object K7DC. If no packets are shown the sender has not sent any weather packets the latest 10 day(s).
| Time | Temp. | Humidity | Pressure | Rain* | Wind** | Luminosity | Snow |
|---|---|---|---|---|---|---|---|
| 1787953986 | 42.78° C | 18% | 1013.5 hPa | 0 mm | - | 690 W/m² | - |
| 1787953685 | 42.22° C | 18% | 1013.9 hPa | 0 mm | - | 692 W/m² | - |
| 1787953380 | 42.78° C | 18% | 1013.8 hPa | 0 mm | - | 706 W/m² | - |
| 1787953078 | 42.78° C | 18% | 1013.7 hPa | 0 mm | - | 731 W/m² | - |
| 1787952778 | 42.78° C | 19% | 1013.8 hPa | 0 mm | - | 725 W/m² | - |
| 1787952472 | 42.78° C | 18% | 1013.8 hPa | 0 mm | - | 757 W/m² | - |
| 1787952169 | 43.33° C | 19% | 1014.1 hPa | 0 mm | - | 776 W/m² | - |
| 1787951867 | 43.89° C | 18% | 1014.1 hPa | 0 mm | - | 760 W/m² | - |
| 1787951563 | 44.44° C | 17% | 1014.2 hPa | 0 mm | - | 761 W/m² | - |
| 1787951259 | 43.33° C | 17% | 1014.3 hPa | 0 mm | - | 769 W/m² | - |
| 1787950955 | 41.67° C | 18% | 1014.3 hPa | 0 mm | - | 778 W/m² | - |
| 1787950650 | 40.56° C | 20% | 1014.7 hPa | 0 mm | - | 787 W/m² | - |
| 1787950347 | 41.11° C | 20% | 1014.6 hPa | 0 mm | - | 797 W/m² | - |
| 1787950042 | 41.67° C | 19% | 1014.7 hPa | 0 mm | - | 806 W/m² | - |
| 1787949738 | 41.67° C | 19% | 1014.7 hPa | 0 mm | - | 815 W/m² | - |
| 1787949437 | 41.11° C | 20% | 1014.8 hPa | 0 mm | - | 822 W/m² | - |
| 1787949132 | 40.56° C | 19% | 1015 hPa | 0 mm | - | 834 W/m² | - |
| 1787948829 | 40.56° C | 20% | 1015.2 hPa | 0 mm | - | 840 W/m² | - |
| 1787948528 | 40.56° C | 21% | 1015.1 hPa | 0 mm | - | 842 W/m² | - |
| 1787948223 | 40.56° C | 20% | 1015.2 hPa | 0 mm | - | 842 W/m² | - |
| 1787947921 | 40.56° C | 20% | 1015.5 hPa | 0 mm | - | 851 W/m² | - |
| 1787947618 | 40.56° C | 20% | 1015.5 hPa | 0 mm | - | 853 W/m² | - |
| 1787947316 | 40.56° C | 21% | 1015.6 hPa | 0 mm | - | 857 W/m² | - |
| 1787947016 | 40.56° C | 21% | 1015.8 hPa | 0 mm | - | 865 W/m² | - |
| 1787946715 | 42.78° C | 18% | 1015.9 hPa | 0 mm | - | 867 W/m² | - |
* Rain latest hour (hover to see other rain measurements)
** Current wind speed in m/s (hover to see current wind gust speed)